QPF
0.00 0.00 0.00 0.00 0.00 0.00 0.00 0.00 0.00 0.00 0.00 0.00 0.00 0.00 0.00 0.00 0.00 0.00 0.00 0.00 0.00 0.00 0.00 0.00 0.00 0.00 0.00 0.00 0.00 0.00 0.00 0.00 0.00 0.00 0.00 0.00 0.00 0.00 0.00 0.00 0.00 0.00 0.00 0.00
0.00 0.00 0.00 0.00 0.00 0.00 0.00 0.00 0.00 0.00 0.00 0.00 0.00 0.00 0.00 0.00 0.00 0.00 0.00 0.00 0.00 0.00 0.00 0.00 0.00 0.00 0.00 0.00 0.00 0.00 0.00 0.00 0.00 0.00 0.00 0.00 0.00 0.00 0.00 0.00 0.00 0.00 0.00 0.00
0.00 0.00 0.00 0.00 0.00 0.00 0.00 0.00 0.00 0.00 0.00 0.00 0.00 0.00 0.00 0.00 0.00 0.00 0.00 0.00 0.00 0.00 0.00 0.00 0.00 0.00 0.00 0.00 0.00 0.00 0.00 0.00 0.00 0.00 0.00 0.00 0.00 0.00 0.00 0.00 0.00 0.00 0.00 0.00
0.00 0.00 0.00 0.00 0.00 0.00 0.00 0.00 0.00 0.00 0.00 0.00 0.00 0.00 0.00 0.00 0.00 0.00 0.00 0.00 0.00 0.00 0.00 0.00 0.00 0.00 0.00 0.00 0.00 0.00 0.00 0.00 0.00 0.00 0.00 0.00 0.00 0.00 0.00 0.00 0.00 0.00 0.00 0.00
0.00 0.00 0.00 0.00 0.00 0.00 0.00 0.00 0.00 0.00 0.00 0.00 0.00 0.00 0.00 0.00 0.00 0.00 0.00 0.00 0.00 0.00 0.00 0.00 0.00 0.00 0.00 0.00 0.00 0.00 0.00 0.00 0.00 0.00 0.00 0.00 0.00 0.00 0.00 0.00 0.00 0.00 0.00 0.00
0.00 0.00 0.00 0.00 0.00 0.00 0.00 0.00 0.00 0.00 0.00 0.00 0.00 0.00 0.00 0.00 0.00 0.00 0.00 0.00 0.00 0.00 0.00 0.00 0.00 0.00 0.00 0.00 0.00 0.00 0.00 0.00 0.00 0.00 0.00 0.00 0.00 0.00 0.00 0.00 0.00 0.00 0.00 0.00
0.00 0.00 0.00 0.00 0.00 0.00 0.00 0.00 0.00 0.00 0.00 0.00 0.00 0.00 0.00 0.00 0.00 0.00 0.00 0.00 0.00 0.00 0.00 0.00 0.00 0.00 0.00 0.00 0.00 0.00 0.00 0.00 0.00 0.00 0.00 0.00 0.00 0.00 0.00 0.00 0.00 0.00 0.00 0.00
0.00 0.00 0.00 0.00 0.00 0.00 0.00 0.00 0.00 0.00 0.00 0.00 0.00 0.00 0.00 0.00 0.00 0.00 0.00 0.00 0.00 0.00 0.00 0.00 0.00 0.00 0.00 0.00 0.00 0.00 0.00 0.00 0.00 0.00 0.00 0.00 0.00 0.00 0.00 0.00 0.00 0.00 0.00 0.00
0.00 0.00 0.00 0.00 0.00 0.00 0.00 0.00 0.00 0.00 0.00 0.00 0.00 0.00 0.00 0.00 0.00 0.00 0.00 0.00 0.00 0.00 0.00 0.00 0.00 0.00 0.00 0.00 0.00 0.00 0.00 0.00 0.00 0.00 0.00 0.00 0.00 0.00 0.00 0.00 0.00 0.00 0.00 0.00
0.00 0.00 0.00 0.00 0.00 0.00 0.00 0.00 0.00 0.00 0.00 0.00 0.00 0.00 0.00 0.00 0.00 0.00 0.00 0.00 0.00 0.00 0.00 0.00 0.00 0.00 0.00 0.00 0.00 0.00 0.00 0.00 0.00 0.00 0.00 0.00 0.00 0.00 0.00 0.00 0.00 0.00 0.00 0.00
0.00 0.00 0.00 0.00 0.00 0.00 0.00 0.00 0.00 0.00 0.00 0.00 0.00 0.00 0.00 0.00 0.00 0.00 0.00 0.00 0.00 0.00 0.00 0.00 0.00 0.00 0.00 0.00 0.00 0.00 0.00 0.00 0.00 0.00 0.00 0.00 0.00 0.00 0.00 0.00 0.00 0.00 0.00 0.00
0.00 0.00 0.00 0.00 0.00 0.00 0.00 0.00 0.00 0.00 0.00 0.00 0.00 0.00 0.00 0.00 0.00 0.00 0.00 0.00 0.00 0.00 0.00 0.00 0.00 0.00 0.00 0.00 0.00 0.00 0.00 0.00 0.00 0.00 0.00 0.00 0.00 0.00 0.00 0.00 0.00 0.00 0.00 0.00
0.00 0.00 0.00 0.00 0.00 0.00 0.00 0.00 0.00 0.00 0.00 0.00 0.00 0.00 0.00 0.00 0.00 0.00 0.00 0.00 0.00 0.00 0.00 0.00 0.00 0.00 0.00 0.00 0.00 0.00 0.00 0.00 0.00 0.00 0.00 0.00 0.00 0.00 0.00 0.00 0.00 0.00 0.00 0.00
0.00 0.00 0.00 0.00 0.00 0.00 0.00 0.00 0.00 0.00 0.00 0.00 0.00 0.00 0.00 0.00 0.00 0.00 0.00 0.00 0.00 0.00 0.00 0.00 0.00 0.00 0.00 0.00 0.00 0.00 0.00 0.00 0.00 0.00 0.00 0.00 0.00 0.00 0.00 0.00 0.00 0.00 0.00 0.00
0.00 0.00 0.00 0.00 0.00 0.00 0.00 0.00 0.00 0.00 0.00 0.00 0.00 0.00 0.00 0.00 0.00 0.00 0.00 0.00 0.00 0.00 0.00 0.00 0.00 0.00 0.00 0.00 0.00 0.00 0.00 0.00 0.00 0.00 0.00 0.00 0.00 0.00 0.00 0.00 0.00 0.00 0.00 0.00
0.00 0.00 0.00 0.00 0.00 0.00 0.00 0.00 0.00 0.00 0.00 0.00 0.00 0.00 0.00 0.00 0.00 0.00 0.00 0.00 0.00 0.00 0.00 0.00 0.00 0.00 0.00 0.00 0.00 0.00 0.00 0.00 0.00 0.00 0.00 0.00 0.00 0.00 0.00 0.00 0.00 0.00 0.00 0.00
0.00 0.00 0.00 0.00 0.00 0.00 0.00 0.00 0.00 0.00 0.00 0.00 0.00 0.00 0.00 0.00 0.00 0.00 0.00 0.00 0.00 0.00 0.00 0.00 0.00 0.00 0.00 0.00 0.00 0.00 0.00 0.00 0.00 0.00 0.00 0.00 0.00 0.00 0.00 0.00 0.00 0.00 0.00 0.00
0.00 0.00 0.00 0.00 0.00 0.00 0.00 0.00 0.00 0.00 0.00 0.00 0.00 0.00 0.00 0.00 0.00 0.00 0.00 0.00 0.00 0.00 0.00 0.00 0.00 0.00 0.00 0.00 0.00 0.00 0.00 0.00 0.00 0.00 0.00 0.00 0.00 0.00 0.00 0.00 0.00 0.00 0.00 0.00
0.00 0.00 0.00 0.00 0.00 0.00 0.00 0.00 0.00 0.00 0.00 0.00 0.00 0.00 0.00 0.00 0.00 0.00 0.00 0.00 0.00 0.00 0.00 0.00 0.00 0.00 0.00 0.00 0.00 0.00 0.00 0.00 0.00 0.00 0.00 0.00 0.00 0.00 0.00 0.00 0.00 0.00 0.00 0.00
0.00 0.00 0.00 0.00 0.00 0.00 0.00 0.00 0.00 0.00 0.00 0.00 0.00 0.00 0.00 0.00 0.00 0.00 0.00 0.00 0.00 0.00 0.00 0.00 0.00 0.00 0.00 0.00 0.00 0.00 0.00 0.00 0.00 0.00 0.00 0.00 0.00 0.00 0.00 0.00 0.00 0.00 0.00 0.00
0.10 0.04 0.01 0.00 0.01 0.00 0.00 0.00 0.00 0.00 0.00 0.00 0.00 0.00 0.00 0.00 0.00 0.00 0.00 0.00 0.00 0.00 0.00 0.00 0.00 0.00 0.00 0.00 0.00 0.00 0.00 0.00 0.00 0.00 0.00 0.00 0.00 0.00 0.00 0.00 0.00 0.00 0.00 0.00
0.11 0.10 0.06 0.05 0.04 0.07 0.05 0.04 0.01 0.00 0.00 0.00 0.00 0.00 0.00 0.00 0.00 0.00 0.00 0.00 0.00 0.00 0.00 0.00 0.00 0.00 0.00 0.00 0.00 0.00 0.00 0.00 0.00 0.00 0.00 0.00 0.00 0.00 0.00 0.00 0.00 0.00 0.00 0.00
0.02 0.08 0.16 0.25 0.29 0.26 0.19 0.06 0.03 0.02 0.01 0.00 0.00 0.00 0.00 0.00 0.00 0.01 0.02 0.03 0.02 0.01 0.01 0.01 0.00 0.00 0.00 0.00 0.00 0.00 0.00 0.00 0.00 0.00 0.00 0.00 0.00 0.00 0.00 0.00 0.00 0.00 0.00 0.00
0.03 0.06 0.13 0.16 0.16 0.10 0.07 0.02 0.01 0.01 0.01 0.00 0.01 0.02 0.02 0.02 0.02 0.06 0.11 0.11 0.06 0.05 0.02 0.01 0.03 0.01 0.00 0.00 0.00 0.00 0.00 0.00 0.00 0.00 0.00 0.00 0.00 0.00 0.00 0.00 0.00 0.00 0.00 0.00
0.00 0.00 0.02 0.04 0.03 0.03 0.02 0.01 0.01 0.01 0.02 0.03 0.06 0.07 0.08 0.06 0.11 0.11 0.08 0.08 0.08 0.06 0.11 0.14 0.07 0.01 0.00 0.00 0.00 0.00 0.00 0.00 0.00 0.00 0.00 0.00 0.00 0.00 0.00 0.00 0.00 0.00 0.00 0.00
0.00 0.00 0.00 0.00 0.00 0.02 0.03 0.04 0.04 0.05 0.06 0.06 0.06 0.08 0.09 0.09 0.07 0.06 0.07 0.07 0.10 0.15 0.08 0.02 0.00 0.00 0.00 0.00 0.00 0.00 0.00 0.00 0.00 0.00 0.00 0.00 0.00 0.00 0.00 0.00 0.00 0.00 0.00 0.00
0.00 0.00 0.00 0.00 0.00 0.00 0.00 0.00 0.00 0.01 0.01 0.01 0.01 0.02 0.05 0.04 0.05 0.05 0.04 0.07 0.06 0.01 0.00 0.00 0.00 0.00 0.00 0.00 0.00 0.00 0.00 0.00 0.00 0.00 0.00 0.00 0.00 0.00 0.00 0.00 0.00 0.00 0.00 0.00
MSLP
1012.64 1012.68 1012.54 1012.44 1012.34 1012.21 1012.11 1012.25 1012.84 1011.93 1011.97 1012.76 1012.82 1012.71 1011.35 1010.49 1010.33 1010.09 1009.86 1009.79 1009.79 1010.49 1011.01 1011.86 1012.76 1014.13 1014.68 1014.82 1014.95 1015.45 1015.76 1016.19 1016.47 1016.28 1015.79 1015.46 1015.69 1016.50 1017.81 1020.11 1021.64 1022.43 1022.10 1020.45
1012.51 1012.49 1012.36 1012.33 1012.24 1011.94 1012.03 1012.32 1012.43 1012.09 1012.31 1012.88 1013.04 1012.02 1011.20 1010.61 1010.61 1010.39 1010.29 1010.33 1010.60 1010.91 1011.77 1012.85 1013.69 1014.90 1015.48 1015.48 1015.88 1016.43 1016.61 1016.99 1017.59 1017.47 1017.04 1016.42 1016.42 1016.92 1018.01 1019.80 1021.35 1022.52 1022.70 1020.98
1012.38 1012.33 1012.35 1012.25 1012.01 1011.72 1012.10 1012.26 1012.54 1012.74 1012.72 1012.31 1012.45 1012.02 1011.47 1011.13 1010.83 1010.70 1010.56 1010.87 1011.18 1011.78 1012.50 1013.12 1014.49 1015.50 1016.11 1016.34 1016.65 1016.89 1017.08 1017.50 1018.29 1018.42 1018.01 1017.54 1017.43 1017.62 1018.14 1019.42 1021.09 1021.64 1021.34 1020.35
1012.25 1012.26 1012.25 1012.04 1011.74 1011.67 1012.09 1011.83 1011.81 1011.73 1012.61 1012.49 1012.40 1011.79 1011.49 1011.50 1011.50 1011.22 1011.23 1011.62 1011.93 1012.46 1013.44 1014.19 1015.19 1016.07 1016.75 1017.09 1017.39 1017.49 1017.92 1018.94 1019.32 1019.29 1018.92 1018.50 1018.18 1018.17 1018.50 1019.00 1019.54 1020.25 1020.15 1019.94
1012.28 1012.20 1012.01 1011.82 1011.67 1011.75 1012.12 1011.60 1011.16 1011.20 1011.78 1012.04 1012.05 1011.74 1011.49 1011.45 1011.53 1011.69 1011.94 1012.22 1012.51 1013.15 1014.49 1015.28 1015.69 1016.05 1016.69 1017.20 1017.72 1018.08 1018.81 1020.24 1020.88 1021.00 1020.40 1019.88 1019.24 1018.72 1018.45 1018.49 1018.76 1019.12 1019.59 1019.91
1012.25 1012.10 1011.80 1011.67 1011.56 1011.62 1011.65 1010.97 1010.37 1011.01 1012.16 1012.29 1012.26 1011.75 1011.24 1011.25 1011.53 1012.18 1012.26 1012.76 1013.87 1014.64 1015.64 1015.93 1016.48 1016.53 1016.85 1017.28 1017.97 1018.91 1020.11 1021.66 1022.72 1022.88 1022.16 1021.26 1020.26 1018.79 1018.28 1018.16 1018.52 1019.01 1019.80 1020.34
1012.24 1011.97 1011.70 1011.59 1011.38 1011.23 1011.11 1010.98 1010.94 1012.15 1013.24 1012.65 1012.08 1011.64 1011.51 1011.98 1012.07 1012.86 1013.52 1013.55 1014.12 1015.78 1015.99 1016.52 1017.25 1017.92 1018.19 1018.31 1018.86 1019.37 1021.08 1022.61 1023.85 1024.87 1023.78 1022.54 1019.70 1018.51 1018.04 1018.35 1018.97 1019.38 1020.28 1021.06
1012.21 1012.00 1011.75 1011.54 1011.23 1010.88 1010.81 1010.94 1011.38 1012.75 1013.61 1012.83 1012.12 1011.75 1012.22 1012.61 1013.20 1014.22 1014.65 1014.85 1014.88 1015.64 1016.99 1019.03 1020.38 1021.22 1020.65 1020.20 1020.25 1020.64 1021.26 1023.17 1025.39 1025.94 1025.30 1022.87 1019.95 1018.72 1018.53 1018.89 1020.23 1020.52 1021.07 1021.79
1012.32 1012.12 1012.02 1011.80 1011.28 1010.81 1010.78 1011.58 1011.57 1012.20 1013.17 1013.23 1012.18 1012.01 1012.31 1013.56 1014.39 1015.44 1016.05 1016.02 1015.99 1016.64 1018.98 1021.02 1022.14 1022.15 1021.41 1021.51 1021.60 1022.01 1022.61 1023.59 1025.08 1026.38 1026.08 1023.84 1020.52 1019.15 1018.76 1019.15 1020.69 1021.28 1021.55 1022.23
1012.44 1012.36 1012.30 1012.01 1011.62 1011.20 1011.07 1011.79 1011.54 1011.94 1013.10 1012.87 1012.40 1012.49 1012.58 1013.37 1014.55 1015.99 1016.68 1017.09 1017.33 1017.94 1020.87 1022.65 1023.48 1022.66 1021.59 1021.87 1022.27 1022.98 1023.93 1024.69 1025.54 1025.84 1025.42 1022.85 1020.12 1019.33 1019.11 1020.30 1021.26 1021.53 1021.80 1022.29
1012.58 1012.55 1012.44 1012.11 1011.84 1011.55 1011.29 1012.02 1011.55 1011.94 1013.31 1013.47 1013.12 1012.90 1012.94 1013.34 1014.43 1015.86 1016.64 1017.66 1018.13 1019.62 1021.62 1022.95 1023.41 1023.11 1022.12 1021.92 1021.73 1022.14 1023.09 1024.26 1024.92 1024.99 1024.23 1021.84 1019.38 1019.31 1019.94 1020.47 1020.92 1021.49 1022.05 1022.46
1012.82 1012.76 1012.67 1012.35 1012.11 1011.83 1011.51 1012.17 1011.66 1011.72 1013.03 1014.09 1013.77 1013.80 1013.73 1013.85 1014.23 1014.69 1015.85 1016.65 1017.45 1018.61 1020.80 1022.25 1022.81 1023.13 1022.78 1022.53 1021.82 1020.88 1021.63 1021.19 1021.87 1022.47 1021.26 1019.57 1019.17 1019.18 1019.64 1020.12 1021.05 1021.68 1021.92 1022.01
1013.05 1013.11 1013.01 1012.75 1012.42 1012.03 1011.83 1012.28 1012.41 1012.53 1013.93 1014.48 1014.30 1014.39 1014.34 1013.91 1013.99 1013.97 1015.19 1016.28 1016.50 1017.83 1018.65 1021.20 1022.61 1023.20 1022.83 1022.55 1021.54 1020.31 1019.48 1019.31 1019.96 1020.19 1019.44 1019.18 1019.34 1019.78 1020.10 1020.48 1021.00 1021.40 1021.62 1021.80
1013.47 1013.45 1013.42 1013.10 1012.79 1012.46 1012.03 1012.67 1012.94 1013.52 1015.03 1015.60 1015.37 1014.64 1014.82 1014.67 1014.34 1014.32 1014.57 1015.37 1016.18 1017.63 1019.26 1021.32 1022.22 1022.46 1021.44 1021.58 1020.46 1020.02 1018.99 1018.61 1018.73 1019.13 1018.99 1019.42 1019.76 1019.72 1019.99 1020.63 1020.93 1021.28 1021.54 1021.71
1013.70 1013.77 1013.73 1013.52 1013.33 1013.00 1012.66 1012.89 1013.36 1013.55 1014.45 1015.86 1015.92 1015.31 1015.40 1015.12 1015.03 1015.06 1015.19 1015.86 1016.93 1018.47 1020.31 1021.53 1021.89 1021.25 1020.92 1020.76 1020.51 1019.83 1018.14 1017.89 1018.12 1018.32 1018.33 1018.58 1019.47 1020.01 1020.14 1020.45 1020.88 1021.13 1021.54 1021.96
1013.99 1014.11 1014.09 1013.94 1013.66 1013.24 1013.30 1013.98 1014.14 1014.16 1014.06 1016.12 1016.93 1016.49 1016.14 1015.84 1015.63 1015.81 1016.20 1016.72 1017.44 1018.39 1020.01 1020.96 1020.70 1019.49 1019.82 1020.64 1020.16 1018.42 1017.42 1017.02 1016.96 1017.90 1018.35 1018.67 1019.43 1019.97 1020.16 1020.49 1020.76 1021.21 1021.75 1022.18
1014.38 1014.47 1014.44 1014.29 1013.89 1013.76 1014.56 1015.25 1015.56 1014.99 1014.79 1016.53 1017.98 1017.80 1017.45 1016.98 1016.74 1017.30 1017.68 1017.90 1018.55 1019.00 1019.79 1020.55 1020.77 1020.14 1019.76 1020.10 1019.45 1017.92 1017.17 1016.72 1017.17 1017.58 1018.26 1019.39 1019.59 1019.91 1020.13 1020.48 1020.86 1021.45 1022.06 1022.56
1014.68 1014.72 1014.66 1014.50 1014.63 1014.92 1015.36 1015.49 1015.16 1015.09 1015.70 1016.83 1018.62 1019.09 1018.71 1017.98 1018.40 1019.05 1019.19 1019.45 1019.49 1019.75 1020.30 1020.75 1020.81 1020.47 1020.20 1019.46 1017.79 1017.03 1016.66 1016.71 1017.24 1017.81 1018.08 1018.64 1019.28 1019.83 1020.39 1020.91 1021.31 1021.97 1022.68 1023.13
1014.94 1014.91 1014.77 1014.68 1015.27 1016.10 1016.37 1015.96 1015.59 1015.25 1016.23 1017.79 1019.18 1019.49 1019.34 1018.94 1019.80 1020.10 1020.25 1020.19 1020.72 1020.73 1020.73 1020.90 1020.88 1020.51 1019.74 1017.83 1017.26 1016.74 1016.36 1016.47 1017.22 1017.91 1018.40 1019.10 1019.75 1020.38 1020.99 1021.42 1022.01 1022.66 1023.28 1023.66
1015.18 1015.28 1015.68 1016.71 1017.07 1016.98 1016.50 1016.06 1016.24 1016.43 1016.91 1017.97 1019.14 1019.17 1019.62 1019.53 1020.33 1020.85 1021.31 1021.23 1021.22 1021.17 1020.94 1020.96 1020.58 1019.39 1018.26 1017.42 1016.99 1016.63 1016.40 1016.55 1016.97 1017.74 1018.93 1019.68 1020.34 1020.96 1021.59 1022.18 1022.77 1023.26 1023.71 1024.03
1015.70 1016.59 1017.25 1017.63 1017.31 1017.15 1017.49 1017.71 1017.98 1018.14 1018.57 1018.82 1019.17 1019.36 1019.61 1019.70 1020.46 1021.04 1021.29 1021.45 1021.32 1021.21 1020.83 1020.86 1020.04 1018.99 1017.76 1016.84 1017.00 1017.02 1017.18 1017.46 1018.21 1019.02 1019.71 1020.46 1020.98 1021.70 1022.35 1022.95 1023.40 1023.71 1023.97 1024.25
1016.37 1016.68 1017.51 1017.79 1018.13 1018.44 1018.58 1018.63 1018.93 1018.99 1019.47 1019.83 1019.83 1019.97 1019.91 1020.14 1019.98 1020.70 1021.34 1021.30 1021.38 1020.81 1020.55 1020.69 1019.71 1018.63 1017.81 1017.64 1017.90 1018.14 1018.36 1019.04 1019.72 1020.23 1020.75 1021.34 1021.98 1022.49 1022.98 1023.34 1023.67 1024.04 1024.20 1024.38
1016.81 1017.41 1018.37 1018.66 1019.56 1019.28 1019.04 1019.07 1019.42 1019.73 1019.99 1020.34 1020.46 1020.67 1020.63 1020.58 1020.64 1020.86 1021.11 1021.12 1020.90 1020.61 1020.76 1020.32 1019.59 1018.83 1018.55 1018.48 1019.05 1019.56 1019.82 1020.18 1020.72 1021.25 1021.71 1022.18 1022.59 1022.93 1023.45 1023.74 1023.77 1023.99 1024.09 1024.00
1018.06 1018.87 1019.55 1019.71 1019.97 1020.02 1019.97 1019.98 1020.12 1020.44 1020.44 1020.59 1020.70 1020.99 1021.02 1020.97 1020.95 1020.87 1020.82 1020.88 1020.89 1020.87 1020.85 1020.73 1020.12 1019.70 1019.67 1019.55 1019.96 1020.48 1021.28 1021.51 1021.80 1022.11 1022.35 1022.69 1023.03 1023.34 1023.71 1023.66 1023.56 1023.87 1023.83 1023.71
1018.71 1019.25 1019.94 1020.27 1020.48 1020.47 1020.61 1020.70 1020.72 1020.87 1020.82 1020.89 1021.09 1021.24 1021.32 1021.29 1021.18 1020.98 1021.07 1021.19 1021.10 1021.09 1021.14 1021.30 1021.15 1020.85 1020.56 1020.74 1021.09 1021.59 1022.09 1022.33 1022.49 1022.69 1022.97 1023.10 1023.25 1023.40 1023.45 1023.24 1023.11 1023.13 1023.16 1023.24
1019.16 1019.84 1020.37 1020.66 1020.70 1020.98 1020.98 1021.07 1021.16 1021.22 1021.22 1021.14 1021.27 1021.47 1021.49 1021.59 1021.51 1021.36 1021.04 1021.12 1021.21 1021.77 1021.91 1021.91 1021.71 1021.52 1021.47 1021.67 1021.85 1022.07 1022.29 1022.54 1022.72 1022.87 1022.96 1023.03 1023.05 1023.06 1022.92 1022.71 1022.62 1022.54 1022.58 1022.70
1019.86 1020.37 1020.38 1020.74 1020.89 1021.28 1021.47 1021.29 1021.53 1021.39 1021.48 1021.64 1021.60 1021.60 1021.78 1021.83 1021.75 1021.68 1021.56 1021.63 1021.97 1021.94 1021.99 1021.80 1021.74 1021.84 1021.96 1022.00 1022.07 1022.19 1022.46 1022.66 1022.75 1022.78 1022.76 1022.78 1022.57 1022.52 1022.73 1022.56 1022.00 1021.89 1021.80 1021.70
Thickness
5571 5577 5586 5596 5605 5613 5622 5623 5611 5640 5647 5624 5629 5630 5656 5662 5666 5673 5671 5671 5671 5662 5664 5654 5650 5637 5640 5655 5654 5642 5648 5632 5606 5632 5648 5653 5647 5636 5626 5575 5588 5562 5552 5570
5569 5576 5586 5596 5605 5616 5621 5618 5620 5638 5639 5608 5611 5644 5657 5666 5659 5662 5664 5660 5664 5666 5654 5638 5640 5634 5642 5647 5642 5633 5641 5628 5592 5612 5627 5639 5635 5634 5622 5599 5573 5571 5530 5555
5568 5576 5585 5596 5606 5615 5619 5618 5605 5621 5629 5637 5638 5642 5648 5650 5660 5661 5666 5661 5664 5657 5648 5653 5634 5630 5638 5640 5639 5635 5639 5635 5611 5589 5617 5624 5620 5621 5621 5596 5555 5565 5561 5578
5567 5575 5584 5595 5606 5613 5615 5620 5621 5629 5609 5625 5636 5647 5646 5642 5641 5657 5661 5653 5654 5649 5638 5639 5629 5628 5628 5633 5630 5637 5631 5614 5618 5618 5621 5622 5620 5614 5609 5603 5594 5569 5574 5580
5565 5574 5583 5594 5604 5610 5612 5617 5624 5635 5628 5639 5640 5635 5643 5642 5645 5646 5644 5646 5651 5645 5631 5630 5629 5632 5629 5626 5629 5631 5624 5596 5606 5602 5609 5605 5602 5600 5600 5601 5601 5597 5588 5580
5563 5573 5583 5592 5601 5609 5611 5625 5638 5631 5623 5630 5624 5633 5649 5649 5647 5647 5650 5644 5627 5621 5626 5629 5629 5632 5632 5631 5624 5618 5608 5586 5572 5575 5584 5577 5569 5595 5603 5604 5598 5590 5568 5572
5562 5571 5581 5590 5599 5608 5618 5625 5630 5615 5605 5621 5629 5643 5646 5637 5645 5635 5633 5637 5628 5628 5632 5628 5621 5616 5616 5621 5617 5617 5592 5582 5553 5540 5550 5548 5596 5608 5604 5593 5584 5582 5569 5558
5560 5569 5579 5588 5597 5609 5617 5620 5623 5606 5583 5619 5632 5641 5630 5629 5629 5622 5623 5627 5631 5630 5620 5591 5589 5572 5577 5592 5603 5604 5601 5565 5533 5544 5543 5569 5591 5598 5589 5577 5565 5565 5556 5547
5557 5566 5574 5583 5595 5606 5611 5611 5619 5613 5591 5601 5630 5630 5627 5611 5611 5608 5609 5617 5620 5618 5579 5561 5559 5565 5582 5579 5588 5582 5581 5565 5544 5517 5524 5515 5569 5586 5588 5582 5536 5553 5548 5537
5555 5562 5569 5578 5588 5597 5605 5604 5614 5615 5600 5613 5620 5615 5615 5619 5610 5594 5599 5602 5602 5604 5553 5556 5549 5565 5589 5570 5566 5545 5530 5546 5533 5508 5510 5540 5573 5579 5580 5544 5537 5543 5538 5527
5552 5558 5565 5573 5582 5590 5598 5598 5608 5608 5595 5602 5610 5615 5614 5617 5606 5586 5595 5582 5580 5559 5562 5548 5545 5547 5560 5573 5577 5561 5541 5526 5523 5535 5538 5520 5577 5570 5550 5543 5543 5532 5524 5515
5547 5554 5560 5569 5576 5584 5592 5590 5601 5606 5598 5591 5600 5603 5607 5608 5608 5602 5595 5590 5590 5579 5560 5546 5549 5547 5552 5549 5553 5580 5558 5558 5540 5542 5540 5565 5568 5563 5554 5542 5526 5519 5513 5508
5543 5549 5555 5562 5571 5579 5585 5584 5589 5592 5578 5580 5586 5588 5595 5601 5602 5608 5588 5583 5594 5587 5583 5555 5555 5540 5543 5531 5544 5576 5576 5577 5550 5554 5565 5560 5552 5544 5535 5527 5519 5512 5504 5497
5537 5543 5549 5557 5564 5571 5578 5576 5579 5578 5563 5546 5568 5584 5583 5588 5592 5596 5597 5591 5588 5579 5564 5545 5543 5531 5560 5535 5553 5547 5565 5567 5565 5550 5557 5543 5539 5532 5523 5514 5508 5500 5494 5487
5533 5538 5543 5550 5555 5562 5568 5571 5571 5573 5569 5544 5549 5572 5573 5578 5580 5582 5583 5580 5574 5561 5542 5533 5531 5528 5541 5526 5530 5534 5565 5555 5538 5527 5552 5544 5525 5514 5512 5505 5497 5491 5481 5472
5526 5530 5535 5541 5548 5555 5560 5555 5560 5563 5567 5547 5532 5557 5562 5566 5570 5571 5569 5567 5565 5559 5539 5525 5539 5559 5541 5530 5531 5557 5561 5560 5558 5542 5536 5526 5512 5507 5503 5495 5486 5476 5468 5458
5517 5522 5527 5533 5540 5546 5544 5544 5544 5551 5555 5532 5522 5536 5542 5550 5556 5549 5551 5547 5543 5545 5535 5524 5522 5527 5532 5515 5526 5547 5549 5550 5538 5533 5522 5505 5502 5494 5490 5481 5474 5463 5451 5439
5510 5515 5520 5525 5530 5531 5533 5534 5539 5543 5538 5529 5515 5521 5519 5538 5520 5521 5525 5517 5526 5528 5523 5515 5513 5514 5506 5519 5538 5542 5542 5535 5526 5518 5514 5502 5492 5486 5475 5466 5456 5445 5431 5420
5502 5507 5512 5518 5517 5516 5519 5523 5529 5532 5529 5511 5503 5502 5504 5521 5510 5504 5505 5510 5502 5506 5501 5501 5504 5499 5512 5530 5529 5532 5531 5524 5512 5503 5498 5488 5479 5467 5456 5448 5438 5425 5412 5401
5494 5499 5500 5492 5496 5502 5508 5515 5506 5508 5509 5506 5498 5503 5505 5509 5493 5491 5491 5484 5491 5496 5494 5489 5486 5500 5513 5517 5519 5519 5517 5513 5503 5490 5475 5466 5457 5446 5437 5428 5415 5405 5394 5383
5485 5480 5476 5483 5489 5492 5487 5483 5494 5492 5495 5492 5496 5496 5502 5496 5485 5483 5477 5478 5477 5486 5478 5483 5488 5494 5503 5511 5506 5500 5494 5488 5479 5468 5459 5449 5439 5428 5417 5405 5393 5385 5377 5367
5474 5476 5473 5473 5472 5469 5478 5478 5475 5484 5488 5475 5480 5484 5487 5478 5485 5472 5464 5472 5465 5482 5474 5470 5478 5479 5493 5490 5484 5478 5474 5465 5456 5448 5438 5426 5416 5405 5394 5386 5378 5370 5360 5345
5464 5462 5457 5462 5448 5465 5473 5480 5471 5474 5464 5465 5465 5468 5464 5463 5464 5457 5458 5464 5467 5456 5460 5458 5456 5479 5477 5473 5460 5450 5444 5435 5426 5421 5413 5403 5396 5387 5378 5365 5360 5349 5344 5338
5443 5443 5446 5448 5450 5448 5449 5454 5455 5447 5449 5451 5451 5451 5453 5448 5453 5449 5458 5445 5442 5450 5442 5433 5446 5455 5453 5450 5442 5430 5416 5406 5402 5398 5393 5387 5373 5365 5355 5348 5342 5333 5330 5325
5430 5429 5435 5432 5426 5428 5430 5432 5436 5433 5435 5438 5438 5437 5437 5438 5439 5437 5433 5434 5440 5437 5436 5423 5418 5421 5422 5416 5411 5403 5395 5382 5381 5380 5371 5359 5354 5349 5345 5339 5333 5328 5320 5312
5415 5414 5414 5412 5419 5418 5418 5419 5421 5421 5422 5424 5425 5426 5431 5426 5423 5426 5432 5431 5428 5415 5406 5402 5400 5400 5397 5393 5388 5384 5381 5376 5370 5363 5357 5351 5341 5335 5337 5330 5321 5315 5308 5301
5404 5401 5400 5400 5403 5405 5404 5409 5406 5409 5412 5416 5414 5420 5412 5406 5410 5412 5408 5409 5400 5396 5389 5386 5390 5387 5383 5378 5375 5367 5364 5359 5353 5349 5343 5339 5333 5325 5319 5317 5315 5307 5299 5292